Flag for United Kingdom Weather past 2 weeks in Telford, England, United Kingdom

Now
59 °F

Partly sunny.


Feels Like: 57 °F
Forecast: 52 / 64 °F
Wind: 12 mph from West

Location: Shawbury

Current Time: Jul 5, 2015 at 5:09:17 PM

Latest Report: Jul 5, 2015 at 3:50 PM


Visibility: N/A

Pressure: 29.98 "Hg

Humidity: 82%

Dew point: 54 °F

Location of TelfordLocation

Historic Weather in Telford — Graph

°F

Telford temperature yesterday

Maximum temperature yesterday: 72 °F (at 10:50 AM)
Minimum temperature yesterday: 54 °F (at 11:50 PM)
Average temperature yesterday: 65 °F

Past Weeks' High & Low Weather Summary

 TemperatureHumidityPressure
High84 °F (Jul 1, 4:50 PM)100% (Jun 25, 1:50 AM)30.30 "Hg (Jun 25, 1:50 AM)
Low46 °F (Jul 3, 5:50 AM)40% (Jun 30, 3:50 PM)29.80 "Hg (Jul 1, 2:50 PM)
Average62 °F72%30.03 "Hg
* Reported Jun 20 3:50 PM — Jul 5 3:50 PM, Telford, Weather by CustomWeather, © 2015

Note: Actual official high and low records may vary slightly from our data, if they occured in-between our weather recording intervals... More about our weather records

Advertising

Telford weather history for previous 24 hours

 ConditionsComfort  
Time TempWeatherWind HumidityBarometerVisibility
3:50 PM
Sun, Jul 5
59 °FPartly sunny.12 mph82%29.98 "HgN/A
2:50 PM57 °FLight rain. Overcast.7 mph94%29.95 "HgN/A
1:50 PM63 °FRain showers. Partly sunny.22 mph73%29.95 "Hg5 mi
12:50 PM68 °FPartly sunny.13 mph49%29.95 "HgN/A
11:50 AM66 °FScattered clouds.17 mph60%29.98 "HgN/A
10:50 AM64 °FPartly sunny.8 mph64%30.01 "HgN/A
9:50 AM61 °FPartly sunny.8 mph72%30.01 "HgN/A
8:50 AM57 °FPassing clouds.5 mph77%30.04 "HgN/A
7:50 AM55 °FPassing clouds.3 mph82%30.04 "HgN/A
6:50 AM52 °FPassing clouds.2 mph88%30.07 "HgN/A
5:50 AM48 °FCool.1 mph94%30.07 "HgN/A
4:50 AM46 °FCool.2 mph93%30.07 "HgN/A
3:50 AM48 °FPassing clouds.2 mph87%30.07 "HgN/A
2:50 AM48 °FCool.2 mph94%30.09 "HgN/A
1:50 AM50 °FPassing clouds.1 mph88%30.09 "HgN/A
12:50 AM52 °FCool.2 mph77%30.12 "HgN/A
11:50 PM
Sat, Jul 4
54 °FCool.1 mph77%30.09 "HgN/A
10:50 PM57 °FCool.5 mph67%30.09 "HgN/A
9:50 PM61 °FPassing clouds.8 mph59%30.09 "HgN/A
8:50 PM64 °FPartly sunny.8 mph60%30.09 "HgN/A
7:50 PM68 °FMild.13 mph46%30.07 "HgN/A
6:50 PM70 °FScattered clouds.13 mph46%30.07 "HgN/A
5:50 PM72 °FPartly sunny.16 mph50%30.07 "HgN/A
Weather by CustomWeather, © 2015

See weather overviewHow to use our weather pages